カタログに戻る

STARLINK-11089

運用中通信VLEO
NORAD 59426·PAYLOAD·🇺🇸 United States

打ち上げ Apr 7, 2024 から Vandenberg Space Force Base

Loading…

次のパス (今後24時間)

TLE

最新Source: CelesTrak SupGP

元期: Sep 15, 2026, 02:37 UTC

1 59426C 24065F   26258.10951389 -.00054573  00000+0 -44922-3 0  2589
2 59426  53.1575 240.3194 0001176  89.8337 176.2172 15.69753640    13

AllMySatでSTARLINK-11089をリアルタイム追跡

Download on the App Store